HFY1E EDDF-OMDB

Flight info

Callsign HFY1E
Flight time N/A
Altitude 31000
Route SULUS4L SULUS Z650 VEMUT/N0493F410 DCT BUDEX DCT TEGRI DCT ARTAT UP975 EZS UG8 OTKEP UM688 RATVO M688 SIDAD P975 SESRU M677 OBNET/N0502F350 M677 VUTEB
Aircraft A359/H-SDE2E3GHIJ3J4J5LM1ORWXY/LB1D1

Departure

Time N/A
Airport Frankfurt Main Airport (EDDF)

Arrival

Time 2026-04-20 18:38
Airport Dubai International Airport (OMDB)
Time Latitude Longitude Altitude Speed Heading
2026-04-20 17:57 26.69238 51.77510 41840 ft 574 kts 109°
2026-04-20 17:57 26.67980 51.81707 41831 ft 575 kts 109°
2026-04-20 17:58 26.65441 51.90145 41841 ft 573 kts 109°
2026-04-20 17:58 26.62796 51.98549 41836 ft 573 kts 111°
2026-04-20 17:59 26.60033 52.06895 41831 ft 573 kts 111°
2026-04-20 17:59 26.57275 52.15228 41684 ft 570 kts 111°
2026-04-20 17:59 26.55911 52.19375 41113 ft 567 kts 110°
2026-04-20 18:00 26.54568 52.23472 40875 ft 571 kts 110°
2026-04-20 18:00 26.51815 52.31869 40831 ft 578 kts 110°
2026-04-20 18:01 26.49052 52.40282 40449 ft 576 kts 110°
2026-04-20 18:01 26.47668 52.44489 39580 ft 580 kts 110°
2026-04-20 18:01 26.46266 52.48742 38539 ft 589 kts 111°
2026-04-20 18:01 26.44843 52.53055 37494 ft 593 kts 111°
2026-04-20 18:02 26.43430 52.57331 37055 ft 582 kts 111°
2026-04-20 18:02 26.42059 52.61478 36563 ft 574 kts 111°
2026-04-20 18:02 26.40687 52.65626 36023 ft 567 kts 111°
2026-04-20 18:02 26.39329 52.69729 35495 ft 560 kts 111°
2026-04-20 18:03 26.38499 52.72233 35153 ft 556 kts 111°
2026-04-20 18:03 26.37238 52.76034 34624 ft 550 kts 111°
2026-04-20 18:03 26.35919 52.80002 34144 ft 542 kts 111°
2026-04-20 18:03 26.34620 52.83916 33575 ft 535 kts 111°
2026-04-20 18:04 26.33329 52.87791 32650 ft 533 kts 111°
2026-04-20 18:04 26.32032 52.91674 31711 ft 535 kts 112°
2026-04-20 18:04 26.30728 52.95567 31111 ft 538 kts 112°
2026-04-20 18:04 26.29435 52.99423 30862 ft 540 kts 112°
2026-04-20 18:05 26.27192 53.06112 30825 ft 540 kts 112°
2026-04-20 18:05 26.24568 53.13932 30825 ft 539 kts 112°
2026-04-20 18:06 26.21937 53.21757 30829 ft 539 kts 112°
2026-04-20 18:06 26.19322 53.29521 30829 ft 539 kts 112°
2026-04-20 18:07 26.16605 53.37300 30828 ft 538 kts 115°
2026-04-20 18:07 26.13497 53.44862 30832 ft 537 kts 117°
2026-04-20 18:08 26.10321 53.52384 30826 ft 537 kts 117°
2026-04-20 18:08 26.07198 53.59928 30832 ft 537 kts 116°
2026-04-20 18:09 26.04107 53.67490 30835 ft 537 kts 116°
2026-04-20 18:09 26.01073 53.74933 30096 ft 526 kts 116°
2026-04-20 18:10 25.99568 53.78656 28815 ft 531 kts 116°
2026-04-20 18:10 25.98085 53.82417 27876 ft 530 kts 116°
2026-04-20 18:10 25.96628 53.86155 27123 ft 524 kts 115°
2026-04-20 18:10 25.95191 53.89851 26388 ft 518 kts 115°
2026-04-20 18:11 25.93766 53.93508 25667 ft 513 kts 115°
2026-04-20 18:11 25.92354 53.97118 24957 ft 507 kts 116°
2026-04-20 18:11 25.90942 54.00679 24250 ft 502 kts 116°
2026-04-20 18:11 25.89456 54.04157 23573 ft 495 kts 118°
2026-04-20 18:12 25.87928 54.07562 22829 ft 489 kts 119°
2026-04-20 18:12 25.86423 54.10863 22048 ft 483 kts 119°
2026-04-20 18:12 25.84916 54.14169 21285 ft 477 kts 119°
2026-04-20 18:12 25.83437 54.17439 20569 ft 470 kts 118°
2026-04-20 18:13 25.82077 54.20713 19858 ft 465 kts 114°
2026-04-20 18:13 25.80921 54.24039 19162 ft 459 kts 112°
2026-04-20 18:13 25.79845 54.27357 18446 ft 455 kts 111°
2026-04-20 18:13 25.78817 54.30656 17679 ft 450 kts 110°
2026-04-20 18:14 25.77816 54.33919 16892 ft 444 kts 110°
2026-04-20 18:14 25.76830 54.37141 16139 ft 438 kts 110°
2026-04-20 18:14 25.75853 54.40322 15390 ft 433 kts 110°
2026-04-20 18:14 25.74897 54.43417 14705 ft 426 kts 109°
2026-04-20 18:15 25.73939 54.46504 14011 ft 420 kts 109°
2026-04-20 18:15 25.72990 54.49550 13389 ft 416 kts 109°
2026-04-20 18:15 25.72040 54.52589 13070 ft 417 kts 109°
2026-04-20 18:15 25.71088 54.55634 13011 ft 418 kts 109°
2026-04-20 18:16 25.70137 54.58671 13007 ft 415 kts 109°
2026-04-20 18:16 25.69216 54.61608 13001 ft 391 kts 109°
2026-04-20 18:16 25.68329 54.64378 12829 ft 373 kts 110°
2026-04-20 18:16 25.67474 54.67029 12588 ft 358 kts 110°
2026-04-20 18:17 25.66652 54.69582 12367 ft 345 kts 109°
2026-04-20 18:17 25.65871 54.72006 12136 ft 333 kts 109°
2026-04-20 18:17 25.65104 54.74388 11797 ft 325 kts 109°
2026-04-20 18:17 25.64347 54.76740 11359 ft 323 kts 109°
2026-04-20 18:18 25.63592 54.79084 10884 ft 322 kts 109°
2026-04-20 18:18 25.62841 54.81418 10412 ft 321 kts 109°
2026-04-20 18:18 25.62092 54.83740 10103 ft 319 kts 108°
2026-04-20 18:18 25.61345 54.86055 10018 ft 319 kts 108°
2026-04-20 18:19 25.60560 54.88355 10010 ft 319 kts 112°
2026-04-20 18:19 25.59669 54.90604 10011 ft 319 kts 113°
2026-04-20 18:19 25.58767 54.92847 9971 ft 318 kts 113°
2026-04-20 18:19 25.57886 54.95059 9543 ft 318 kts 112°
2026-04-20 18:20 25.57002 54.97299 9099 ft 315 kts 112°
2026-04-20 18:20 25.56134 54.99508 8662 ft 311 kts 112°
2026-04-20 18:20 25.55276 55.01699 8253 ft 308 kts 112°
2026-04-20 18:20 25.54369 55.03834 8039 ft 307 kts 117°
2026-04-20 18:21 25.53330 55.05895 8014 ft 307 kts 118°
2026-04-20 18:21 25.52265 55.07942 8012 ft 306 kts 119°
2026-04-20 18:21 25.51202 55.09983 8012 ft 306 kts 119°
2026-04-20 18:21 25.50139 55.12025 8012 ft 306 kts 118°
2026-04-20 18:22 25.49079 55.14065 8011 ft 306 kts 118°
2026-04-20 18:22 25.48018 55.16106 8016 ft 306 kts 119°
2026-04-20 18:22 25.46972 55.18119 8016 ft 306 kts 118°
2026-04-20 18:22 25.45830 55.20103 8016 ft 307 kts 127°
2026-04-20 18:23 25.44453 55.21896 8014 ft 306 kts 131°
2026-04-20 18:23 25.43021 55.23643 8015 ft 306 kts 131°
2026-04-20 18:23 25.41586 55.25390 8015 ft 306 kts 131°
2026-04-20 18:23 25.40156 55.27135 8020 ft 306 kts 131°
2026-04-20 18:24 25.38729 55.28881 8015 ft 306 kts 131°
2026-04-20 18:24 25.37304 55.30627 8015 ft 306 kts 131°
2026-04-20 18:24 25.35845 55.32335 8007 ft 306 kts 138°
2026-04-20 18:24 25.34071 55.33637 8019 ft 306 kts 152°
2026-04-20 18:25 25.32214 55.34724 8017 ft 306 kts 153°
2026-04-20 18:25 25.30336 55.35801 7789 ft 302 kts 153°
2026-04-20 18:25 25.28478 55.36875 7308 ft 302 kts 152°
2026-04-20 18:25 25.26623 55.37953 6860 ft 300 kts 152°
2026-04-20 18:26 25.24781 55.39026 6420 ft 299 kts 152°
2026-04-20 18:26 25.22948 55.40095 6114 ft 297 kts 152°
2026-04-20 18:26 25.21119 55.41163 6023 ft 298 kts 152°
2026-04-20 18:26 25.19291 55.42229 6019 ft 297 kts 152°
2026-04-20 18:27 25.17465 55.43297 6020 ft 297 kts 152°
2026-04-20 18:27 25.15663 55.44350 6020 ft 297 kts 152°
2026-04-20 18:27 25.13842 55.45411 6021 ft 297 kts 152°
2026-04-20 18:27 25.12021 55.46496 6014 ft 297 kts 149°
2026-04-20 18:28 25.10535 55.48042 6026 ft 294 kts 124°
2026-04-20 18:28 25.09429 55.49919 5716 ft 290 kts 119°
2026-04-20 18:28 25.08400 55.51827 5254 ft 289 kts 119°
2026-04-20 18:28 25.07376 55.53723 4810 ft 287 kts 119°
2026-04-20 18:29 25.06349 55.55605 4380 ft 285 kts 120°
2026-04-20 18:29 25.05320 55.57458 3929 ft 283 kts 120°
2026-04-20 18:29 25.04303 55.59276 3491 ft 281 kts 120°
2026-04-20 18:29 25.03294 55.61107 3065 ft 278 kts 118°
2026-04-20 18:30 25.02710 55.63100 2593 ft 273 kts 93°
2026-04-20 18:30 25.02990 55.65121 2194 ft 266 kts 66°
2026-04-20 18:30 25.04088 55.66725 2043 ft 264 kts 38°
2026-04-20 18:30 25.05701 55.67528 2013 ft 248 kts
2026-04-20 18:31 25.07311 55.67254 2013 ft 227 kts 336°
2026-04-20 18:31 25.08182 55.66681 2014 ft 215 kts 322°
2026-04-20 18:31 25.09212 55.65534 2020 ft 209 kts 307°
2026-04-20 18:31 25.10012 55.64197 2022 ft 209 kts 301°
2026-04-20 18:32 25.11004 55.62383 2023 ft 209 kts 301°
2026-04-20 18:32 25.11745 55.61006 2023 ft 208 kts 301°
2026-04-20 18:32 25.12477 55.59627 2023 ft 209 kts 301°
2026-04-20 18:32 25.13212 55.58248 2024 ft 209 kts 301°
2026-04-20 18:33 25.13704 55.57338 2040 ft 207 kts 301°
2026-04-20 18:33 25.14426 55.56018 2019 ft 193 kts 301°
2026-04-20 18:33 25.15090 55.54812 2002 ft 175 kts 302°
2026-04-20 18:33 25.15686 55.53733 2012 ft 154 kts 302°
2026-04-20 18:34 25.16225 55.52759 2013 ft 146 kts 302°
2026-04-20 18:34 25.16926 55.51508 2019 ft 144 kts 303°
2026-04-20 18:34 25.17282 55.50877 2023 ft 142 kts 303°
2026-04-20 18:34 25.17783 55.49982 2012 ft 133 kts 303°
2026-04-20 18:35 25.18261 55.49123 1979 ft 132 kts 303°
2026-04-20 18:35 25.18733 55.48276 1814 ft 131 kts 303°
2026-04-20 18:35 25.19209 55.47419 1626 ft 130 kts 302°
2026-04-20 18:35 25.19676 55.46567 1431 ft 130 kts 302°
2026-04-20 18:36 25.20143 55.45720 1317 ft 131 kts 302°
2026-04-20 18:36 25.20620 55.44843 1119 ft 135 kts 301°
2026-04-20 18:36 25.21102 55.43971 937 ft 130 kts 303°
2026-04-20 18:36 25.21563 55.43131 775 ft 126 kts 301°
2026-04-20 18:37 25.22033 55.42304 633 ft 130 kts 302°
2026-04-20 18:37 25.22498 55.41443 465 ft 132 kts 300°
2026-04-20 18:37 25.22983 55.40581 301 ft 132 kts 298°
2026-04-20 18:37 25.23454 55.39724 105 ft 130 kts 301°
2026-04-20 18:38 25.23908 55.38896 31 ft 123 kts 301°
2026-04-20 18:38 25.24301 55.38206 28 ft 87 kts 301°
2026-04-20 18:38 25.24550 55.37758 28 ft 50 kts 302°
2026-04-20 18:38 25.24694 55.37499 28 ft 38 kts 302°
2026-04-20 18:39 25.24772 55.37286 28 ft 19 kts 282°
2026-04-20 18:39 25.24784 55.37145 28 ft 19 kts 272°
2026-04-20 18:39 25.24788 55.37024 28 ft 14 kts 272°
2026-04-20 18:39 25.24789 55.37003 28 ft 1 kts 271°
2026-04-20 18:40 25.24769 55.36960 28 ft 9 kts 229°
2026-04-20 18:40 25.24703 55.36915 28 ft 13 kts 208°
2026-04-20 18:40 25.24612 55.36854 29 ft 17 kts 211°
2026-04-20 18:40 25.24509 55.36785 28 ft 5 kts 210°
2026-04-20 18:41 25.24508 55.36784 28 ft 0 kts 211°
2026-04-20 18:41 25.24506 55.36782 28 ft 1 kts 211°
2026-04-20 18:41 25.24483 55.36768 28 ft 6 kts 211°
2026-04-20 18:42 25.24431 55.36723 28 ft 13 kts 225°
2026-04-20 18:42 25.24379 55.36621 28 ft 18 kts 252°
2026-04-20 18:42 25.24386 55.36473 28 ft 21 kts 291°
2026-04-20 18:42 25.24469 55.36319 28 ft 25 kts 302°
2026-04-20 18:43 25.24560 55.36158 28 ft 21 kts 301°
2026-04-20 18:43 25.24641 55.36013 28 ft 23 kts 302°
2026-04-20 18:43 25.24710 55.35890 28 ft 19 kts 302°
2026-04-20 18:43 25.24782 55.35762 28 ft 20 kts 302°
2026-04-20 18:44 25.24861 55.35636 29 ft 16 kts 306°
2026-04-20 18:44 25.24929 55.35524 29 ft 19 kts 302°
2026-04-20 18:44 25.25002 55.35396 29 ft 18 kts 303°
2026-04-20 18:44 25.25075 55.35266 29 ft 21 kts 302°
2026-04-20 18:45 25.25156 55.35144 29 ft 13 kts 303°
2026-04-20 18:45 25.25212 55.35048 29 ft 17 kts 302°
2026-04-20 18:45 25.25284 55.34923 29 ft 21 kts 303°
2026-04-20 18:45 25.25398 55.34820 29 ft 17 kts 345°
2026-04-20 18:46 25.25503 55.34833 29 ft 15 kts 23°
2026-04-20 18:46 25.25581 55.34881 29 ft 9 kts 30°
2026-04-20 18:46 25.25612 55.34887 29 ft 3 kts 337°
2026-04-20 18:46 25.25636 55.34856 29 ft 8 kts 301°
2026-04-20 18:47 25.25657 55.34819 29 ft 4 kts 302°
2026-04-20 18:47 25.25661 55.34811 29 ft 0 kts 301°